Location: Colorado Springs
(38.8340°N, 104.8210°W)
Time: 18:33:13
(UTC-06:00)

Tiangong 1 - Pass Details

Date: 11 October 2017
Orbit: 292 x 319 km, 42.8° (Epoch: 22 October)

Event Time Altitude Azimuth Distance (km) Brightness Sun altitude
Rises 20:35:59 0° 291° (WNW) 2,033 6.0 -26.0°
Reaches altitude 10° 20:37:59 10° 293° (WNW) 1,197 4.5 -26.4°
Enters shadow 20:38:12 12° 294° (WNW) 1,103 4.3 -26.4°
